When you browse on this site, cookies collect data to enhance your experience and personalize the content and advertising you see.
Visit our Privacy Policy to learn more. By continuing to use the site, you agree to this use of cookies and data.
  • In Norway
  • List of Countries
  • For 7 days
  • Water Temperature
  • Satellite Maps
  • Weather Map
  • Weather Widgets
  • user-avatar
    Login

    Hourly Weather Korczowa

    Today, 24 May, Friday

    Time Temperature Precipitation Wind Pressure Humidity
    00:00 +12°C° 0.2 mm 3 mps 739 mmHg 97%
    01:00 +12°C° 0.2 mm 3 mps 739 mmHg 97%
    02:00 +12°C° 0 mm 3 mps 739 mmHg 98%
    03:00 +12°C° 0.1 mm 3 mps 739 mmHg 98%
    04:00 +12°C° 0.1 mm 3 mps 739 mmHg 98%
    05:00 +12°C° 0.1 mm 3 mps 739 mmHg 98%
    06:00 +13°C° 0 mm 3 mps 739 mmHg 96%
    07:00 +14°C° 0 mm 3 mps 739 mmHg 94%
    08:00 +14°C° 0 mm 3 mps 739 mmHg 92%
    09:00 +16°C° 0.1 mm 3 mps 739 mmHg 91%
    10:00 +16°C° 0.1 mm 3 mps 739 mmHg 89%
    11:00 +17°C° 0.1 mm 3 mps 739 mmHg 88%
    12:00 +17°C° 0.4 mm 3 mps 739 mmHg 86%
    13:00 +18°C° 0.4 mm 4 mps 739 mmHg 85%
    14:00 +18°C° 0 mm 3 mps 739 mmHg 83%
    15:00 +18°C° 0.1 mm 3 mps 739 mmHg 83%
    16:00 +18°C° 0.1 mm 3 mps 739 mmHg 83%
    17:00 +18°C° 0.1 mm 3 mps 739 mmHg 83%
    18:00 +17°C° 0 mm 3 mps 739 mmHg 86%
    19:00 +16°C° 0 mm 2 mps 739 mmHg 88%
    20:00 +16°C° 0 mm 2 mps 738 mmHg 90%
    21:00 +15°C° 0 mm 2 mps 738 mmHg 91%
    22:00 +15°C° 0 mm 2 mps 738 mmHg 92%
    23:00 +14°C° 0 mm 2 mps 738 mmHg 93%

    Tomorrow, 25 May, Saturday

    Time Temperature Precipitation Wind Pressure Humidity
    00:00 +14°C° 0 mm 2 mps 738 mmHg 93%
    01:00 +14°C° 0 mm 2 mps 738 mmHg 94%
    02:00 +13°C° 0 mm 2 mps 738 mmHg 94%
    03:00 +13°C° 0 mm 2 mps 739 mmHg 95%
    04:00 +13°C° 0 mm 2 mps 739 mmHg 96%
    05:00 +13°C° 0 mm 2 mps 739 mmHg 97%
    06:00 +13°C° 0 mm 3 mps 739 mmHg 93%
    07:00 +14°C° 0 mm 3 mps 739 mmHg 90%
    08:00 +16°C° 0 mm 3 mps 739 mmHg 86%
    09:00 +17°C° 0.1 mm 4 mps 739 mmHg 82%
    10:00 +18°C° 0.1 mm 4 mps 739 mmHg 78%
    11:00 +19°C° 0.1 mm 4 mps 739 mmHg 74%
    12:00 +20°C° 0.5 mm 4 mps 739 mmHg 72%
    13:00 +20°C° 0.5 mm 5 mps 739 mmHg 70%
    14:00 +21°C° 0.5 mm 5 mps 739 mmHg 68%
    15:00 +21°C° 0.1 mm 4 mps 739 mmHg 67%
    16:00 +21°C° 0.1 mm 4 mps 739 mmHg 65%
    17:00 +21°C° 0.1 mm 4 mps 739 mmHg 64%
    18:00 +20°C° 0 mm 3 mps 739 mmHg 68%
    19:00 +18°C° 0 mm 3 mps 739 mmHg 73%
    20:00 +17°C° 0 mm 2 mps 739 mmHg 78%
    21:00 +16°C° 0 mm 2 mps 739 mmHg 81%
    22:00 +15°C° 0 mm 2 mps 739 mmHg 85%
    23:00 +14°C° 0 mm 2 mps 740 mmHg 88%

    Day after tomorrow, 26 May, Sunday

    Time Temperature Precipitation Wind Pressure Humidity
    00:00 +14°C° 0 mm 2 mps 740 mmHg 90%
    01:00 +13°C° 0 mm 2 mps 740 mmHg 91%
    02:00 +13°C° 0 mm 2 mps 740 mmHg 93%
    03:00 +13°C° 0 mm 2 mps 740 mmHg 93%
    04:00 +12°C° 0 mm 2 mps 740 mmHg 94%
    05:00 +12°C° 0 mm 2 mps 740 mmHg 94%
    06:00 +14°C° 0 mm 2 mps 740 mmHg 89%
    07:00 +15°C° 0 mm 2 mps 741 mmHg 85%
    08:00 +18°C° 0 mm 1 mps 741 mmHg 80%
    09:00 +18°C° 0.2 mm 2 mps 741 mmHg 76%
    10:00 +20°C° 0.2 mm 2 mps 741 mmHg 72%
    11:00 +21°C° 0.2 mm 2 mps 741 mmHg 68%
    12:00 +21°C° 0.5 mm 2 mps 740 mmHg 68%
    13:00 +22°C° 0.5 mm 3 mps 740 mmHg 69%
    14:00 +22°C° 0.5 mm 4 mps 740 mmHg 69%
    15:00 +22°C° 1.2 mm 4 mps 740 mmHg 72%
    16:00 +21°C° 1.2 mm 4 mps 740 mmHg 76%
    17:00 +21°C° 1.2 mm 4 mps 739 mmHg 79%
    18:00 +20°C° 0.6 mm 4 mps 740 mmHg 82%
    19:00 +19°C° 0.6 mm 3 mps 740 mmHg 85%
    20:00 +18°C° 0.6 mm 3 mps 740 mmHg 88%
    21:00 +17°C° 0.3 mm 3 mps 740 mmHg 89%
    22:00 +16°C° 0.3 mm 2 mps 740 mmHg 91%
    23:00 +15°C° 0.3 mm 2 mps 740 mmHg 93%

    27 May, Monday

    Time Temperature Precipitation Wind Pressure Humidity
    00:00 +15°C° 0.1 mm 2 mps 740 mmHg 93%
    01:00 +15°C° 0.1 mm 2 mps 740 mmHg 94%
    02:00 +15°C° 0.1 mm 2 mps 740 mmHg 94%
    03:00 +15°C° 0 mm 2 mps 740 mmHg 94%
    04:00 +14°C° 0 mm 2 mps 740 mmHg 94%
    05:00 +14°C° 0 mm 2 mps 740 mmHg 94%
    06:00 +16°C° 0 mm 2 mps 740 mmHg 90%
    07:00 +18°C° 0 mm 2 mps 740 mmHg 87%
    08:00 +19°C° 0 mm 3 mps 740 mmHg 83%
    09:00 +21°C° 0.2 mm 3 mps 740 mmHg 78%
    10:00 +22°C° 0.2 mm 3 mps 740 mmHg 73%
    11:00 +23°C° 0.2 mm 4 mps 740 mmHg 68%
    12:00 +25°C° 0.4 mm 4 mps 740 mmHg 66%
    13:00 +25°C° 0.4 mm 4 mps 740 mmHg 65%
    14:00 +25°C° 0.4 mm 4 mps 740 mmHg 63%
    15:00 +25°C° 0.2 mm 4 mps 740 mmHg 65%
    16:00 +25°C° 0.2 mm 3 mps 739 mmHg 67%
    17:00 +25°C° 0.2 mm 2 mps 739 mmHg 69%
    18:00 +23°C° 0.1 mm 2 mps 739 mmHg 73%
    19:00 +22°C° 0.1 mm 1 mps 739 mmHg 77%
    20:00 +21°C° 0.1 mm 1 mps 739 mmHg 81%
    21:00 +20°C° 0.1 mm 1 mps 739 mmHg 83%
    22:00 +19°C° 0.1 mm 1 mps 739 mmHg 85%
    23:00 +17°C° 0.1 mm 2 mps 739 mmHg 87%

    28 May, Tuesday

    Time Temperature Precipitation Wind Pressure Humidity
    00:00 +18°C° 0.3 mm 2 mps 738 mmHg 88%
    01:00 +18°C° 0.3 mm 2 mps 738 mmHg 89%
    02:00 +18°C° 0.3 mm 2 mps 738 mmHg 90%
    03:00 +18°C° 1.4 mm 2 mps 738 mmHg 92%
    04:00 +18°C° 1.4 mm 2 mps 738 mmHg 93%
    05:00 +18°C° 1.4 mm 2 mps 737 mmHg 95%
    06:00 +18°C° 0.9 mm 2 mps 737 mmHg 93%
    07:00 +19°C° 0.9 mm 3 mps 737 mmHg 92%
    08:00 +20°C° 0.9 mm 4 mps 737 mmHg 90%
    09:00 +21°C° 0.5 mm 4 mps 737 mmHg 84%
    10:00 +23°C° 0.5 mm 4 mps 736 mmHg 78%
    11:00 +26°C° 0.5 mm 4 mps 736 mmHg 72%
    12:00 +26°C° 1.8 mm 3 mps 736 mmHg 69%
    13:00 +27°C° 1.8 mm 2 mps 735 mmHg 67%
    14:00 +27°C° 1.8 mm 1 mps 735 mmHg 64%
    15:00 +27°C° 1.3 mm 1 mps 735 mmHg 67%
    16:00 +26°C° 1.3 mm 2 mps 735 mmHg 70%
    17:00 +26°C° 1.3 mm 2 mps 735 mmHg 73%
    18:00 +24°C° 0.6 mm 2 mps 735 mmHg 77%
    19:00 +22°C° 0.6 mm 3 mps 734 mmHg 81%
    20:00 +21°C° 0.6 mm 3 mps 734 mmHg 84%
    21:00 +20°C° 0.6 mm 3 mps 734 mmHg 85%
    22:00 +19°C° 0.6 mm 2 mps 734 mmHg 85%
    23:00 +17°C° 0.6 mm 2 mps 734 mmHg 86%

    29 May, Wednesday

    Time Temperature Precipitation Wind Pressure Humidity
    00:00 +17°C° 0 mm 3 mps 734 mmHg 87%
    01:00 +17°C° 0 mm 3 mps 734 mmHg 89%
    02:00 +17°C° 0 mm 3 mps 735 mmHg 90%
    03:00 +17°C° 0 mm 3 mps 735 mmHg 91%
    04:00 +17°C° 0 mm 3 mps 735 mmHg 91%
    05:00 +17°C° 0 mm 3 mps 735 mmHg 91%
    06:00 +18°C° 0 mm 3 mps 736 mmHg 89%
    07:00 +19°C° 0 mm 3 mps 736 mmHg 87%
    08:00 +19°C° 0 mm 3 mps 736 mmHg 85%
    09:00 +20°C° 0.8 mm 3 mps 736 mmHg 82%
    10:00 +21°C° 0.8 mm 3 mps 737 mmHg 79%
    11:00 +22°C° 0.8 mm 3 mps 737 mmHg 76%
    12:00 +22°C° 1.3 mm 3 mps 737 mmHg 76%
    13:00 +22°C° 1.3 mm 3 mps 737 mmHg 77%
    14:00 +22°C° 1.3 mm 3 mps 738 mmHg 77%
    15:00 +22°C° 1.2 mm 4 mps 738 mmHg 80%
    16:00 +21°C° 1.2 mm 4 mps 738 mmHg 83%
    17:00 +21°C° 1.2 mm 4 mps 739 mmHg 86%
    18:00 +19°C° 0.3 mm 5 mps 739 mmHg 88%
    19:00 +17°C° 0.3 mm 5 mps 740 mmHg 90%
    20:00 +15°C° 0.3 mm 5 mps 740 mmHg 91%
    21:00 +15°C° 0 mm 4 mps 741 mmHg 91%
    22:00 +14°C° 0 mm 4 mps 742 mmHg 91%
    23:00 +13°C° 0 mm 3 mps 742 mmHg 91%
    Show more